Weather in Ogre

Latvia     56˚49′08″N   24˚36′34″E
temp.,
°C
wind,
m/s
gust,
m/s
humid.,
%
clouds,
%
prec.,
mm/h
press.,
hPa
HPBL,
m
30 november, mon
mon3023:00nne2580100 0.0 1021502
02:00−2˚nnw249385 0.0 1021145
05:00−1˚n1392100 0.0 1020179
08:00−1˚sw0096100 0.3 102080
11:00ssw1295100 1.5 1020187
14:00ssw2496100 2.6 1019257
17:00wsw3697100 1.1 1019306
20:00sw3698100 1.7 1019348
1 december, tue
tue123:00ssw3897100 0.9 1019487
02:00ssw4991100 1.8 1020509
05:00ssw4889100 0.0 1020540
08:00−2˚s499495 0.1 1022373
11:00−1˚ssw4792100 0.0 1024509
14:00ssw3688100 0.0 1025527
17:00−1˚ssw3690100 0.0 1026529
20:00−1˚ssw3590100 0.0 1028511
2 december, wed
wed223:00−1˚s3687100 0.0 1029582
02:00−1˚s1588100 0.1 1031388
05:00−1˚sse2590100 0.0 1030367
08:00−3˚sse2594100 0.0 1030170
11:00−2˚sse3685100 0.0 1030357
14:00−1˚sse3682100 0.0 1029482
17:00−3˚se3788100 0.0 1028273
20:00−3˚se3789100 0.0 1027271
3 december, thu
thu323:00−3˚se3889100 0.0 1026324
02:00−3˚se3993100 0.0 1025366
05:00−2˚se3892100 0.1 1024541
08:00−1˚sse488299 0.1 1023762
11:00−1˚sse488398 0.1 1022854
14:00−1˚sse488199 0.1 1022798
17:00−1˚se4887100 0.1 1021754
20:00−2˚sse41090100 0.1 1021604
4 december, fri
fri423:00−1˚sse498897 0.1 1020776
02:00se388899 0.1 1020619
05:00se41088100 0.0 1019614
08:00se4118895 0.0 1019733
11:00+1˚se51181100 0.0 1019892
14:00+2˚se51079100 0.0 1018771
17:00+2˚se51183100 0.0 1017767
20:00+2˚se41187100 0.0 1017804